Вернуться в каталог

CZ-6A DEB

АктивенPO
NORAD 60695·DEBRIS·🇨🇳 China

Запущен Aug 6, 2024 с Taiyuan Satellite Launch Center

Loading…

Ближайшие Пролёты (ближайшие 24 часа)

TLE

СвежийSource: Space-Track

Эпоха: Sep 14, 2026, 09:56 UTC

1 60695U 24140CY  26257.41394669  .00000540  00000-0  25820-3 0  9990
2 60695  89.0272 267.9936 0055677 264.5651  94.9185 14.17061768108249

Отслеживайте CZ-6A DEB в реальном времени с AllMySat

Download on the App Store